Starlink 33691

operational
NORAD ID: 63462 Int'l Des: 2025-070 Owner: SPXS Country: US Constellation: starlink
LEOCIRCULAR

关于 Starlink 33691

正在加载描述...

实时位置

正在加载3D地球...

即将过境

高度历史

Altitude vs Time

uPlot chart will show altitude changes over time

两行轨道根数

1 63462U 25070C 25261.09028419 .00033553 00000-0 12221-2 0 9993
2 63462 43.0024 154.2055 0001786 252.3204 107.7452 15.27609977 26533
Epoch: Sep 18, 2025 • Age: 11 hours

当前状态

高度 494.5 km
速度 7.62 km/s
星下点 -41.72°S, 110.22°W
发射日期 Apr 6, 2025
运行时间 0.4 years
类型 internet

技术详情

分类 Payload
质量 575.00 kg
干质量 530.00 kg
总质量 575.00 kg
长度 0.30 m
直径 4.10 m
跨度 29.00 m
形状 Box + pan
制造商 SPXS
平台类型 Starlink V2MO
阶段状态 In Orbit
所有者/国家 SPXS/US

大型星座

Loading constellations...